Terminal Aerodrome Forecast
Issued by NWS

Home | Current Version | Previous Version | Text Only | Print | Product List | Glossary On
Versions: 1 2 3 4 5 6 7 8 9 10 11 12 13 14 15 16 17 18 19
000
FTUS45 KBYZ 181640 AAB
TAFLVM
TAF AMD
KLVM 181640Z 1817/1912 24011KT 5SM -SHRA BKN020
      TEMPO 1817/1818 P6SM SCT020 BKN040
     FM181800 25015KT P6SM VCSH FEW025 BKN060
     FM182000 26025G35KT P6SM VCSH SCT050 BKN080
     FM190200 27015G25KT P6SM SCT080
     FM190500 25015KT P6SM SCT200=

USA.gov is the U.S. government's official web portal to all federal, state and local government web resources and services.